Weather History for Broken Bow, NE

Change the Weather History Date:

Friday, July 26, 2013

  Actual Average Record
Temperature  
Mean Temperature 65 °F 74 °F  
Max Temperature 74 °F 87 °F 108 °F (1936)
Min Temperature 55 °F 62 °F 45 °F (2004)
Degree Days  
Heating Degree Days 0 0  
Month to date heating degree days 1 0  
Since 1 June heating degree days 42 46  
Cooling Degree Days 0 10  
Month to date cooling degree days 229 243  
Year to date cooling degree days 431 429  
Since 1 June cooling degree days 396 395  
Growing Degree Days 15 (Base 50)    
Moisture  
Dew Point 55 °F    
Average Humidity 73    
Maximum Humidity 100    
Minimum Humidity 46    
Precipitation  
Precipitation T in 0.08 in 3.29 in (1905)
Sea Level Pressure  
Sea Level Pressure 30.14 in    
Wind  
Wind Speed 7 mph (North)    
Max Wind Speed 18 mph    
Max Gust Speed 24 mph    
Visibility 9 miles    
Events      
T = Trace of Precipitation, MM = Missing Value Source: NWS Daily Summary

Daily Weather History Graph

Daily Weather History Graph

Search for Another Location

Airport:

Trip Planner

Search our weather history database for the weather conditions in past years. The results will help you decide how hot, cold, wet, or windy it might be!

Date:

Astronomy

Jul. 26, 2013 Rise Set
Actual Time 6:27 AM CDT 9:01 PM CDT
Civil Twilight 5:56 AM CDT 9:33 PM CDT
Nautical Twilight 5:16 AM CDT 10:12 PM CDT
Astronomical Twilight 4:31 AM CDT 10:57 PM CDT
Moon 11:12 PM CDT (7/26) 11:10 AM CDT (7/26)
Length of Visible Light 15h 37m
Length of Day
14h 33m
Waning Gibbous, 80% of the Moon is Illuminated
Jul 26
Waning Gibbous
Jul 29
Last Quarter
Aug 6
New
Aug 14
First Quarter
Aug 20
Full

Hourly Weather History & Observations

Time (CDT) Temp. Dew Point Humidity Pressure Visibility Wind Dir Wind Speed Gust Speed Precip Events Conditions
12:53 AM 61.0 °F 61.0 °F 100% 30.07 in 7.0 mi NNW 3.5 mph - N/A   Clear
1:53 AM 61.0 °F 60.1 °F 97% 30.06 in 5.0 mi Calm Calm - N/A   Clear
2:53 AM 60.1 °F 60.1 °F 100% 30.06 in 7.0 mi NNW 4.6 mph - N/A   Clear
3:53 AM 59.0 °F 59.0 °F 100% 30.06 in 8.0 mi North 4.6 mph - N/A   Clear
4:53 AM 59.0 °F 59.0 °F 100% 30.07 in 9.0 mi North 5.8 mph - N/A   Clear
5:53 AM 60.1 °F 59.0 °F 96% 30.08 in 9.0 mi North 6.9 mph - 0.01 in   Clear
6:53 AM 59.0 °F 57.0 °F 93% 30.12 in 10.0 mi North 8.1 mph - N/A   Clear
7:53 AM 57.9 °F 55.0 °F 90% 30.14 in 10.0 mi North 10.4 mph 19.6 mph N/A   Clear
8:53 AM 61.0 °F 53.1 °F 75% 30.18 in 10.0 mi North 8.1 mph - N/A   Clear
9:53 AM 64.0 °F 53.1 °F 67% 30.20 in 10.0 mi North 11.5 mph 20.7 mph N/A   Clear
10:53 AM 64.9 °F 52.0 °F 63% 30.19 in 10.0 mi North 9.2 mph 18.4 mph N/A   Partly Cloudy
11:53 AM 68.0 °F 54.0 °F 61% 30.19 in 10.0 mi North 12.7 mph - N/A   Clear
12:53 PM 66.9 °F 52.0 °F 59% 30.21 in 10.0 mi NNE 11.5 mph 21.9 mph N/A   Scattered Clouds
1:53 PM 70.0 °F 53.1 °F 55% 30.18 in 10.0 mi North 11.5 mph 20.7 mph N/A   Clear
2:53 PM 72.0 °F 54.0 °F 53% 30.17 in 10.0 mi NNW 9.2 mph 18.4 mph N/A   Clear
3:53 PM 72.0 °F 53.1 °F 51% 30.16 in 10.0 mi Variable 4.6 mph 17.3 mph N/A   Clear
4:53 PM 73.0 °F 53.1 °F 49% 30.15 in 10.0 mi NNW 8.1 mph 18.4 mph N/A   Clear
5:53 PM 73.0 °F 52.0 °F 48% 30.13 in 10.0 mi North 6.9 mph - N/A   Clear
6:53 PM 73.0 °F 52.0 °F 48% 30.13 in 10.0 mi North 6.9 mph - N/A   Clear
7:53 PM 70.0 °F 50.0 °F 49% 30.14 in 10.0 mi NE 6.9 mph - N/A   Clear
8:53 PM 64.0 °F 53.1 °F 67% 30.14 in 10.0 mi NNE 4.6 mph - N/A   Clear
9:53 PM 60.1 °F 52.0 °F 75% 30.14 in 10.0 mi ENE 3.5 mph - N/A   Clear
10:53 PM 57.9 °F 52.0 °F 81% 30.15 in 10.0 mi Calm Calm - N/A   Clear
11:53 PM 55.0 °F 53.1 °F 93% 30.15 in 10.0 mi Calm Calm - N/A   Scattered Clouds